TimeEST,TemperatureF,Dew PointF,Humidity,Sea Level PressureIn,VisibilityMPH,Wind Direction,Wind SpeedMPH,Gust SpeedMPH,PrecipitationIn,Events,Conditions,WindDirDegrees,DateUTC
12:15 AM,48.2,48.2,100,29.80,10.0,SSE,5.8,-,N/A,,Mostly Cloudy,150,2013-02-24 05:15:00
12:35 AM,48.2,46.4,93,29.83,10.0,WNW,4.6,-,0.01,,Overcast,300,2013-02-24 05:35:00
12:55 AM,48.2,48.2,100,29.76,7.0,ENE,4.6,-,0.01,,Overcast,60,2013-02-24 05:55:00
1:15 AM,48.2,46.4,93,29.81,7.0,NW,12.7,20.7,N/A,,Overcast,320,2013-02-24 06:15:00
1:35 AM,48.2,46.4,93,29.81,7.0,NW,8.1,-,N/A,,Overcast,310,2013-02-24 06:35:00
1:55 AM,46.4,46.4,100,29.82,6.0,NW,10.4,-,N/A,,Overcast,310,2013-02-24 06:55:00
2:15 AM,46.4,44.6,93,29.83,7.0,NW,11.5,-,N/A,,Overcast,310,2013-02-24 07:15:00
2:35 AM,46.4,44.6,93,29.83,3.0,NW,8.1,-,N/A,,Overcast,310,2013-02-24 07:35:00
2:55 AM,46.4,44.6,93,29.83,1.5,WNW,9.2,-,N/A,,Overcast,300,2013-02-24 07:55:00
3:15 AM,46.4,44.6,93,29.83,1.0,WNW,8.1,-,N/A,,Overcast,300,2013-02-24 08:15:00
3:35 AM,46.4,44.6,93,29.84,1.0,WNW,8.1,-,N/A,,Overcast,290,2013-02-24 08:35:00
3:55 AM,46.4,46.4,100,29.83,1.0,West,9.2,-,N/A,,Overcast,280,2013-02-24 08:55:00
4:15 AM,46.4,44.6,93,29.84,2.5,WNW,12.7,-,N/A,,Overcast,290,2013-02-24 09:15:00
4:35 AM,46.4,44.6,93,29.85,4.0,WNW,12.7,-,N/A,,Overcast,290,2013-02-24 09:35:00
4:55 AM,46.4,44.6,93,29.86,5.0,WNW,9.2,-,N/A,,Overcast,290,2013-02-24 09:55:00
5:15 AM,46.4,44.6,93,29.86,10.0,WNW,9.2,-,N/A,,Overcast,300,2013-02-24 10:15:00
5:35 AM,46.4,44.6,93,29.86,10.0,WNW,9.2,-,N/A,,Overcast,300,2013-02-24 10:35:00
5:50 AM,46.4,44.6,93,29.86,7.0,NW,9.2,-,N/A,,Overcast,310,2013-02-24 10:50:00
6:45 AM,46.4,44.6,93,29.88,5.0,WNW,11.5,-,N/A,,Overcast,300,2013-02-24 11:45:00
7:30 AM,46.4,44.6,93,29.91,2.0,NW,11.5,-,N/A,,Overcast,310,2013-02-24 12:30:00
7:45 AM,46.4,44.6,93,29.91,2.0,NW,11.5,-,N/A,,Overcast,310,2013-02-24 12:45:00
8:45 AM,46.4,46.4,100,29.95,2.0,NW,11.5,-,N/A,,Overcast,320,2013-02-24 13:45:00
9:45 AM,50.0,46.4,87,29.96,10.0,NW,15.0,-,N/A,,Overcast,310,2013-02-24 14:45:00
10:11 AM,51.8,46.4,82,29.96,10.0,NNW,15.0,-,N/A,,Scattered Clouds,340,2013-02-24 15:11:00
10:50 AM,53.6,46.4,77,29.97,10.0,NNW,15.0,-,N/A,,Partly Cloudy,340,2013-02-24 15:50:00
11:45 AM,57.2,46.4,67,29.97,10.0,NNW,12.7,-,N/A,,Partly Cloudy,330,2013-02-24 16:45:00
12:50 PM,60.8,46.4,59,29.95,10.0,NW,10.4,-,N/A,,Clear,320,2013-02-24 17:50:00
1:50 PM,62.6,44.6,52,29.93,10.0,NW,12.7,-,N/A,,Clear,320,2013-02-24 18:50:00
2:45 PM,64.4,39.2,40,29.92,10.0,NW,11.5,-,N/A,,Clear,320,2013-02-24 19:45:00
3:45 PM,64.4,37.4,37,29.92,10.0,NW,13.8,-,N/A,,Clear,310,2013-02-24 20:45:00
4:45 PM,64.4,39.2,40,29.93,10.0,South,8.1,-,N/A,,Clear,180,2013-02-24 21:45:00
5:45 PM,57.2,46.4,67,29.94,10.0,SSW,10.4,-,N/A,,Clear,200,2013-02-24 22:45:00
7:45 PM,51.8,48.2,88,29.99,10.0,Calm,Calm,-,N/A,,Clear,0,2013-02-25 00:45:00
8:50 PM,48.2,46.4,93,30.00,10.0,Calm,Calm,-,N/A,,Clear,0,2013-02-25 01:50:00
9:50 PM,48.2,48.2,100,30.02,10.0,Calm,Calm,-,N/A,,Clear,0,2013-02-25 02:50:00
11:15 PM,44.6,42.8,93,30.00,0.5,Calm,Calm,-,N/A,,Unknown,0,2013-02-25 04:15:00
11:35 PM,44.6,44.6,100,30.00,1.0,Calm,Calm,-,N/A,,Clear,0,2013-02-25 04:35:00
11:55 PM,42.8,42.8,100,30.00,0.2,Calm,Calm,-,N/A,,Unknown,0,2013-02-25 04:55:00